Regional Weather Roundup
Issued by NWS State College, PA

Home | Current Version | Previous Version | Text Only | Print | Product List | Glossary On
Versions: 1 2 3 4 5 6 7 8 9 10 11 12 13 14 15 16 17 18 19 20 21 22 23 24 25 26 27 28 29 30 31 32 33 34 35 36 37 38 39 40 41 42 43 44 45 46 47 48 49 50
000
ASUS41 KCTP 280610
RWRCTP

REGIONAL WEATHER ROUNDUP
NATIONAL WEATHER SERVICE STATE COLLEGE PA
200 AM EDT THU JUL 28 2016

Note: "fair" indicates few or no clouds below 12,000 feet with no
significant weather and/or obstructions to visibility.

* = STATION THAT DOES NOT REPORT PRECIPITATION /E.G. RAIN...SNOW...ETC/
    THUNDER OR FOG.

PAZ002>004-007>009-013>016-020>023-029>032-280700-
WESTERN PENNSYLVANIA

CITY           SKY/WX    TMP DP  RH WIND       PRES   REMARKS
ERIE           CLEAR     71  59  65 CALM      29.94S
MEADVILLE      CLEAR     66  57  72 CALM      29.98F
FRANKLIN*      CLEAR     64  61  88 CALM      30.00S
NEW CASTLE     FAIR      66  63  90 NE3       29.97S
BEAVER COUNTY  NOT AVBL
BUTLER*        CLEAR     66  61  82 NE3       29.99S
PITTSBURGH INT PTCLDY    74  62  66 CALM      29.96S
PITTSBURGH     CLOUDY    78  61  55 CALM      29.96S
INDIANA*       PTCLDY    66  63  88 CALM      30.01S
LATROBE        MOCLDY    68  68 100 CALM      29.98S
WASHINGTON CO* MOCLDY    73  66  78 CALM      29.98S
$$

PAZ004>006-010>012-017>019-024>028-033>037-041-042-045-046-049>053-280700-
CENTRAL PENNSYLVANIA

CITY           SKY/WX    TMP DP  RH WIND       PRES   REMARKS
BRADFORD       CLEAR     59  57  93 CALM      30.01F
DUBOIS         CLEAR     66  58  75 CALM      29.99F
CLEARFIELD     CLEAR     65  58  78 CALM      29.99S
JOHNSTOWN      PTCLDY    68  54  60 CALM      30.03R
ALTOONA        PTCLDY    66  59  78 CALM      29.99S
STATE COLLEGE  CLEAR     68  60  75 CALM      29.97S
WILLIAMSPORT   CLEAR     67  61  81 NW3       29.92F
SELINSGROVE    CLEAR     65  65 100 CALM      29.93F
FT INDIANTOWN  CLEAR     67  63  89 N1        29.93S
CAPITAL CITY   CLEAR     74  66  76 SW3       29.92S
HARRISBURG     PTCLDY    76  69  79 CALM      29.91F
YORK           PTCLDY    70  67  90 CALM      29.93F
$$

PAZ038>040-043-044-047-048-054-055-060>062-067>071-280700-
EASTERN PENNSYLVANIA

CITY           SKY/WX    TMP DP  RH WIND       PRES   REMARKS
SCRANTON       CLEAR     68  61  78 E7        29.95S
MOUNT POCONO   CLEAR     59  57  93 CALM      30.00S
ALLENTOWN      CLEAR     70  64  81 CALM      29.93R
QUAKERTOWN*    CLEAR     66  64  94 CALM      29.95S
READING        CLEAR     72  63  73 NW3       29.92S
LANCASTER      PTCLDY    70  67  90 CALM      29.93S
COATESVILLE    PTCLDY    72  64  78 CALM      29.96S
POTTSTOWN      NOT AVBL
BLUE BELL      CLEAR     68  68 100 CALM      29.92S
DOYLESTOWN     CLEAR     70  67  90 CALM      29.93R
WILLOW GROVE   NOT AVBL
NORTH PHILA    CLEAR     79  74  84 CALM      29.93S
PHILADELPHIA   PTCLDY    77  73  87 CALM      29.92S
$$




USA.gov is the U.S. government's official web portal to all federal, state and local government web resources and services.